Wetterdaten: Woche 06.11.17 - 12.11.17 (KW45)
Datum Zeit Temp. A. Pool Temp. Feuchte A. Luftdruck Regen Wind Richtung Sonnenschein ET UV Solar Taupunkt Windchill Windben Empfang
06.11.2017 00:00 5,6 C 7,8 C 93 % 1012,9 hPa 0,4 l/m 13,8 km/h (3 Bft) SW 0,00 h 0,000 mm 0,0 UV-I 0 W/m 4,5 C 0,4 C 20,6 km/h (4 Bft) 96,42 %
06.11.2017 01:00 5,6 C 7,5 C 94 % 1013,1 hPa 0,0 l/m 14,8 km/h (3 Bft) S-SW 0,00 h 0,000 mm 0,0 UV-I 0 W/m 4,7 C -0,1 C 22,7 km/h (4 Bft) 99,33 %
06.11.2017 02:00 5,5 C 7,2 C 93 % 1013,3 hPa 0,8 l/m 15,1 km/h (3 Bft) SW 0,00 h 0,000 mm 0,0 UV-I 0 W/m 4,5 C -0,4 C 23,8 km/h (4 Bft) 97,80 %
06.11.2017 03:00 5,2 C 7,2 C 94 % 1013,3 hPa 0,6 l/m 13,6 km/h (3 Bft) SW 0,00 h 0,000 mm 0,0 UV-I 0 W/m 4,4 C 0,1 C 21,1 km/h (4 Bft) 97,54 %
06.11.2017 04:00 5,2 C 7,2 C 95 % 1013,9 hPa 1,4 l/m 14,4 km/h (3 Bft) SW 0,00 h 0,000 mm 0,0 UV-I 0 W/m 4,4 C -0,3 C 22,5 km/h (4 Bft) 97,43 %
06.11.2017 05:00 4,8 C 7,2 C 95 % 1014,7 hPa 1,2 l/m 15,3 km/h (3 Bft) SW 0,00 h 0,000 mm 0,0 UV-I 0 W/m 4,0 C -1,2 C 23,6 km/h (4 Bft) 99,21 %
06.11.2017 06:00 4,2 C 7,2 C 94 % 1015,3 hPa 0,2 l/m 16,5 km/h (3 Bft) SW 0,00 h 0,000 mm 0,0 UV-I 4 W/m 3,4 C -2,6 C 25,4 km/h (4 Bft) 97,57 %
06.11.2017 07:00 3,8 C 7,2 C 94 % 1016,1 hPa 0,4 l/m 16,5 km/h (3 Bft) S-SW 0,00 h 0,000 mm 0,0 UV-I 26 W/m 2,9 C -3,0 C 25,6 km/h (4 Bft) 96,35 %
06.11.2017 08:00 3,8 C 7,2 C 94 % 1017,1 hPa 0,4 l/m 17,6 km/h (3 Bft) SW 0,00 h 0,025 mm 0,0 UV-I 49 W/m 3,0 C -3,6 C 26,8 km/h (4 Bft) 98,26 %
06.11.2017 09:00 3,9 C 7,2 C 95 % 1017,7 hPa 0,0 l/m 15,2 km/h (3 Bft) W-SW 0,00 h 0,026 mm 0,0 UV-I 52 W/m 3,2 C -2,3 C 22,9 km/h (4 Bft) 98,47 %
06.11.2017 10:00 4,3 C 7,2 C 95 % 1018,6 hPa 0,2 l/m 12,3 km/h (3 Bft) SW 0,00 h 0,025 mm 0,0 UV-I 57 W/m 3,5 C -0,1 C 19,7 km/h (3 Bft) 98,20 %
06.11.2017 11:00 4,5 C 7,2 C 95 % 1018,9 hPa 0,0 l/m 12,2 km/h (2 Bft) SW 0,00 h 0,026 mm 0,0 UV-I 73 W/m 3,7 C 0,1 C 19,2 km/h (3 Bft) 96,17 %
06.11.2017 12:00 4,6 C 7,2 C 95 % 1019,0 hPa 0,2 l/m 10,3 km/h (2 Bft) SW 0,00 h 0,025 mm 0,0 UV-I 79 W/m 3,9 C 1,6 C 16,2 km/h (3 Bft) 98,65 %
06.11.2017 13:00 4,7 C 7,2 C 95 % 1019,1 hPa 0,2 l/m 9,0 km/h (2 Bft) SW 0,00 h 0,025 mm 0,0 UV-I 48 W/m 4,0 C 2,5 C 14,6 km/h (3 Bft) 98,27 %
06.11.2017 14:00 4,6 C 7,2 C 95 % 1019,2 hPa 0,0 l/m 9,8 km/h (2 Bft) SW 0,00 h 0,026 mm 0,0 UV-I 21 W/m 3,8 C 1,8 C 16,1 km/h (3 Bft) 97,50 %
06.11.2017 15:00 4,4 C 7,2 C 96 % 1019,8 hPa 0,8 l/m 9,1 km/h (2 Bft) S-SW 0,00 h 0,000 mm 0,0 UV-I 12 W/m 3,8 C 2,1 C 14,4 km/h (3 Bft) 96,66 %
06.11.2017 16:00 4,3 C 7,2 C 96 % 1020,2 hPa 0,8 l/m 8,3 km/h (2 Bft) S-SW 0,00 h 0,000 mm 0,0 UV-I 7 W/m 3,7 C 2,7 C 13,2 km/h (3 Bft) 99,12 %
06.11.2017 17:00 4,1 C 7,2 C 96 % 1020,7 hPa 1,4 l/m 8,7 km/h (2 Bft) SW 0,00 h 0,000 mm 0,0 UV-I 0 W/m 3,5 C 2,2 C 14,3 km/h (3 Bft) 97,91 %
06.11.2017 18:00 3,8 C 7,2 C 96 % 1021,2 hPa 1,0 l/m 7,4 km/h (2 Bft) S-SW 0,00 h 0,000 mm 0,0 UV-I 0 W/m 3,2 C 2,3 C 12,4 km/h (3 Bft) 97,52 %
06.11.2017 19:00 3,6 C 7,2 C 96 % 1021,6 hPa 0,6 l/m 8,4 km/h (2 Bft) S-SW 0,00 h 0,000 mm 0,0 UV-I 0 W/m 3,0 C 1,8 C 12,9 km/h (3 Bft) 97,20 %
06.11.2017 20:00 3,4 C 7,2 C 96 % 1021,7 hPa 0,2 l/m 9,1 km/h (2 Bft) S-SW 0,00 h 0,000 mm 0,0 UV-I 0 W/m 2,8 C 1,0 C 14,1 km/h (3 Bft) 99,11 %
06.11.2017 21:00 3,5 C 7,2 C 96 % 1021,7 hPa 0,2 l/m 6,3 km/h (2 Bft) SW 0,00 h 0,000 mm 0,0 UV-I 0 W/m 2,9 C 3,0 C 9,7 km/h (2 Bft) 97,90 %
06.11.2017 22:00 3,6 C 7,2 C 96 % 1021,8 hPa 0,0 l/m 6,1 km/h (2 Bft) S-SW 0,00 h 0,000 mm 0,0 UV-I 0 W/m 3,0 C 3,2 C 9,4 km/h (2 Bft) 96,88 %
06.11.2017 23:00 3,5 C 7,2 C 97 % 1021,8 hPa 0,2 l/m 5,3 km/h (1 Bft) S-SW 0,00 h 0,000 mm 0,0 UV-I 0 W/m 3,1 C 3,5 C 8,3 km/h (2 Bft) 97,74 %
07.11.2017 00:00 3,7 C 7,2 C 97 % 1021,6 hPa 0,0 l/m 1,6 km/h (1 Bft) S-SW 0,00 h 0,000 mm 0,0 UV-I 0 W/m 3,3 C 3,7 C 3,6 km/h (1 Bft) 99,63 %
07.11.2017 01:00 3,8 C 7,2 C 98 % 1021,4 hPa 0,2 l/m 0,2 km/h (0 Bft) S-SW 0,00 h 0,000 mm 0,0 UV-I 0 W/m 3,5 C 3,8 C 0,6 km/h (0 Bft) 96,84 %
07.11.2017 02:00 4,0 C 7,2 C 98 % 1021,0 hPa 0,0 l/m 3,5 km/h (1 Bft) NO 0,00 h 0,000 mm 0,0 UV-I 0 W/m 3,7 C 4,0 C 5,3 km/h (1 Bft) 98,15 %
07.11.2017 03:00 4,1 C 7,2 C 98 % 1020,6 hPa 0,0 l/m 6,4 km/h (2 Bft) NO 0,00 h 0,000 mm 0,0 UV-I 0 W/m 3,9 C 3,6 C 9,7 km/h (2 Bft) 97,80 %
07.11.2017 04:00 4,2 C 7,2 C 98 % 1020,2 hPa 0,0 l/m 7,3 km/h (2 Bft) O-NO 0,00 h 0,000 mm 0,0 UV-I 0 W/m 3,9 C 3,3 C 11,0 km/h (2 Bft) 99,55 %
07.11.2017 05:00 4,4 C 7,2 C 98 % 1019,7 hPa 0,0 l/m 10,2 km/h (2 Bft) NO 0,00 h 0,000 mm 0,0 UV-I 0 W/m 4,1 C 1,4 C 15,7 km/h (3 Bft) 97,09 %
07.11.2017 06:00 4,8 C 7,2 C 98 % 1019,5 hPa 0,0 l/m 15,2 km/h (3 Bft) O-NO 0,00 h 0,000 mm 0,0 UV-I 0 W/m 4,5 C -1,2 C 22,1 km/h (4 Bft) 98,12 %
07.11.2017 07:00 5,6 C 7,2 C 98 % 1019,6 hPa 0,0 l/m 20,9 km/h (4 Bft) O-NO 0,00 h 0,000 mm 0,0 UV-I 7 W/m 5,3 C -2,7 C 30,3 km/h (5 Bft) 98,09 %
07.11.2017 08:00 6,1 C 7,2 C 97 % 1019,4 hPa 0,0 l/m 22,2 km/h (4 Bft) O-NO 0,00 h 0,000 mm 0,0 UV-I 30 W/m 5,6 C -2,6 C 32,5 km/h (5 Bft) 99,28 %
07.11.2017 09:00 6,5 C 7,2 C 95 % 1019,1 hPa 0,2 l/m 24,9 km/h (4 Bft) O-NO 0,00 h 0,025 mm 0,0 UV-I 64 W/m 5,8 C -2,8 C 35,7 km/h (5 Bft) 96,89 %
07.11.2017 10:00 7,0 C 7,2 C 92 % 1018,7 hPa 0,0 l/m 30,1 km/h (5 Bft) O-NO 0,23 h 0,026 mm 0,7 UV-I 161 W/m 5,8 C -3,6 C 42,4 km/h (6 Bft) 98,11 %
07.11.2017 11:00 7,4 C 7,2 C 90 % 1018,0 hPa 0,0 l/m 26,4 km/h (4 Bft) O-NO 0,27 h 0,101 mm 0,9 UV-I 221 W/m 5,9 C -2,1 C 36,6 km/h (5 Bft) 97,81 %
07.11.2017 12:00 7,4 C 7,2 C 88 % 1017,1 hPa 0,0 l/m 28,0 km/h (4 Bft) O-NO 0,00 h 0,127 mm 0,7 UV-I 185 W/m 5,6 C -2,4 C 40,0 km/h (6 Bft) 99,08 %
07.11.2017 13:00 7,4 C 7,2 C 89 % 1016,6 hPa 0,0 l/m 25,5 km/h (4 Bft) O-NO 0,00 h 0,102 mm 0,6 UV-I 117 W/m 5,6 C -1,8 C 36,1 km/h (5 Bft) 96,82 %
07.11.2017 14:00 7,3 C 7,2 C 90 % 1016,0 hPa 0,0 l/m 21,7 km/h (4 Bft) O-NO 0,00 h 0,076 mm 0,0 UV-I 59 W/m 5,8 C -0,8 C 30,2 km/h (5 Bft) 97,30 %
07.11.2017 15:00 7,4 C 7,2 C 91 % 1015,7 hPa 0,0 l/m 19,3 km/h (3 Bft) O-NO 0,00 h 0,051 mm 0,0 UV-I 30 W/m 6,0 C 0,2 C 26,9 km/h (4 Bft) 97,72 %
07.11.2017 16:00 7,6 C 7,2 C 91 % 1015,4 hPa 0,0 l/m 20,3 km/h (4 Bft) O-NO 0,03 h 0,025 mm 0,0 UV-I 13 W/m 6,2 C 0,1 C 29,0 km/h (5 Bft) 99,45 %
07.11.2017 17:00 7,5 C 7,2 C 89 % 1015,3 hPa 0,0 l/m 19,3 km/h (3 Bft) O-NO 0,00 h 0,026 mm 0,0 UV-I 0 W/m 5,8 C 0,3 C 27,5 km/h (4 Bft) 97,18 %
07.11.2017 18:00 7,5 C 7,2 C 88 % 1015,3 hPa 0,0 l/m 22,1 km/h (4 Bft) O-NO 0,00 h 0,025 mm 0,0 UV-I 0 W/m 5,6 C -0,6 C 30,9 km/h (5 Bft) 97,52 %
07.11.2017 19:00 7,7 C 7,2 C 86 % 1014,7 hPa 0,0 l/m 25,7 km/h (4 Bft) O-NO 0,00 h 0,026 mm 0,0 UV-I 0 W/m 5,5 C -1,5 C 35,9 km/h (5 Bft) 98,18 %
07.11.2017 20:00 7,6 C 7,2 C 86 % 1014,4 hPa 0,0 l/m 25,1 km/h (4 Bft) O-NO 0,00 h 0,025 mm 0,0 UV-I 0 W/m 5,4 C -1,4 C 35,6 km/h (5 Bft) 99,27 %
07.11.2017 21:00 7,6 C 7,2 C 87 % 1014,0 hPa 0,0 l/m 30,4 km/h (5 Bft) O-NO 0,00 h 0,025 mm 0,0 UV-I 0 W/m 5,5 C -2,7 C 42,5 km/h (6 Bft) 97,49 %
07.11.2017 22:00 7,6 C 7,2 C 87 % 1013,3 hPa 0,0 l/m 28,5 km/h (4 Bft) O-NO 0,00 h 0,051 mm 0,0 UV-I 0 W/m 5,6 C -2,3 C 39,4 km/h (6 Bft) 97,42 %
07.11.2017 23:00 7,5 C 7,2 C 88 % 1013,2 hPa 0,0 l/m 24,0 km/h (4 Bft) O-NO 0,00 h 0,026 mm 0,0 UV-I 0 W/m 5,6 C -1,2 C 34,7 km/h (5 Bft) 97,41 %
08.11.2017 00:00 7,5 C 7,2 C 88 % 1013,4 hPa 0,0 l/m 21,7 km/h (4 Bft) O-NO 0,00 h 0,000 mm 0,0 UV-I 0 W/m 5,7 C -0,5 C 31,8 km/h (5 Bft) 99,24 %
08.11.2017 01:00 7,3 C 7,2 C 90 % 1013,8 hPa 0,0 l/m 13,2 km/h (3 Bft) O-NO 0,00 h 0,025 mm 0,0 UV-I 0 W/m 5,7 C 3,0 C 20,8 km/h (4 Bft) 97,71 %
08.11.2017 02:00 7,2 C 7,2 C 91 % 1013,8 hPa 0,0 l/m 9,0 km/h (2 Bft) O 0,00 h 0,026 mm 0,0 UV-I 0 W/m 5,8 C 5,1 C 14,5 km/h (3 Bft) 97,20 %
08.11.2017 03:00 5,9 C 7,2 C 93 % 1014,1 hPa 0,0 l/m 3,0 km/h (1 Bft) S-SO 0,00 h 0,000 mm 0,0 UV-I 0 W/m 4,8 C 5,9 C 5,1 km/h (1 Bft) 98,45 %
08.11.2017 04:00 4,7 C 7,2 C 95 % 1014,1 hPa 0,0 l/m 4,1 km/h (1 Bft) S-SW 0,00 h 0,000 mm 0,0 UV-I 0 W/m 3,9 C 4,7 C 6,8 km/h (2 Bft) 98,58 %
08.11.2017 05:00 4,8 C 7,2 C 95 % 1014,6 hPa 0,0 l/m 4,8 km/h (1 Bft) S-SW 0,00 h 0,000 mm 0,0 UV-I 0 W/m 4,1 C 4,7 C 7,5 km/h (2 Bft) 97,19 %
08.11.2017 06:00 5,0 C 7,2 C 95 % 1014,8 hPa 0,0 l/m 5,8 km/h (2 Bft) S-SW 0,00 h 0,000 mm 0,0 UV-I 5 W/m 4,2 C 4,9 C 9,2 km/h (2 Bft) 97,45 %
08.11.2017 07:00 5,4 C 7,2 C 93 % 1015,1 hPa 0,0 l/m 4,9 km/h (1 Bft) W-SW 0,00 h 0,000 mm 0,0 UV-I 13 W/m 4,4 C 5,4 C 7,8 km/h (2 Bft) 98,60 %
08.11.2017 08:00 5,6 C 7,2 C 92 % 1015,6 hPa 0,0 l/m 5,1 km/h (1 Bft) S-SW 0,00 h 0,000 mm 0,0 UV-I 31 W/m 4,5 C 5,5 C 8,0 km/h (2 Bft) 98,74 %
08.11.2017 09:00 6,0 C 7,2 C 92 % 1015,6 hPa 0,0 l/m 4,8 km/h (1 Bft) SW 0,00 h 0,025 mm 0,0 UV-I 67 W/m 4,7 C 5,9 C 7,4 km/h (2 Bft) 96,60 %
08.11.2017 10:00 6,1 C 7,2 C 91 % 1016,1 hPa 0,4 l/m 5,2 km/h (1 Bft) SW 0,00 h 0,026 mm 0,0 UV-I 58 W/m 4,8 C 6,1 C 8,1 km/h (2 Bft) 98,04 %
08.11.2017 11:00 6,1 C 7,2 C 93 % 1016,2 hPa 0,8 l/m 5,5 km/h (1 Bft) SW 0,00 h 0,025 mm 0,0 UV-I 72 W/m 5,0 C 6,0 C 8,5 km/h (2 Bft) 98,86 %
08.11.2017 12:00 6,0 C 7,2 C 94 % 1016,2 hPa 0,8 l/m 4,3 km/h (1 Bft) SW 0,00 h 0,025 mm 0,0 UV-I 71 W/m 5,2 C 6,0 C 6,8 km/h (2 Bft) 98,60 %
08.11.2017 13:00 6,1 C 7,2 C 95 % 1016,2 hPa 0,6 l/m 5,5 km/h (1 Bft) SW 0,00 h 0,026 mm 0,0 UV-I 63 W/m 5,3 C 5,9 C 8,8 km/h (2 Bft) 96,76 %
08.11.2017 14:00 5,9 C 7,2 C 95 % 1016,5 hPa 0,0 l/m 5,5 km/h (1 Bft) W-SW 0,00 h 0,025 mm 0,0 UV-I 29 W/m 5,2 C 5,7 C 9,1 km/h (2 Bft) 98,09 %
08.11.2017 15:00 5,8 C 7,2 C 95 % 1016,8 hPa 0,0 l/m 4,5 km/h (1 Bft) W-SW 0,00 h 0,026 mm 0,0 UV-I 22 W/m 5,0 C 5,8 C 6,9 km/h (2 Bft) 98,86 %
08.11.2017 16:00 5,6 C 7,2 C 95 % 1017,3 hPa 0,0 l/m 6,3 km/h (2 Bft) SW 0,00 h 0,000 mm 0,0 UV-I 8 W/m 4,9 C 5,3 C 9,8 km/h (2 Bft) 97,84 %
08.11.2017 17:00 5,3 C 7,2 C 96 % 1017,7 hPa 0,4 l/m 3,3 km/h (1 Bft) SW 0,00 h 0,000 mm 0,0 UV-I 0 W/m 4,6 C 5,3 C 5,4 km/h (1 Bft) 97,21 %
08.11.2017 18:00 5,2 C 7,2 C 96 % 1018,1 hPa 0,2 l/m 3,5 km/h (1 Bft) SW 0,00 h 0,000 mm 0,0 UV-I 0 W/m 4,6 C 5,2 C 5,8 km/h (2 Bft) 98,32 %
08.11.2017 19:00 5,1 C 7,2 C 96 % 1018,3 hPa 0,0 l/m 1,1 km/h (1 Bft) SW 0,00 h 0,000 mm 0,0 UV-I 0 W/m 4,5 C 5,1 C 2,5 km/h (1 Bft) 98,97 %
08.11.2017 20:00 5,0 C 7,2 C 97 % 1018,6 hPa 0,0 l/m 0,2 km/h (0 Bft) SW 0,00 h 0,000 mm 0,0 UV-I 0 W/m 4,5 C 5,0 C 0,9 km/h (0 Bft) 96,63 %
08.11.2017 21:00 5,1 C 7,4 C 97 % 1019,0 hPa 0,0 l/m 0,3 km/h (0 Bft) SW 0,00 h 0,000 mm 0,0 UV-I 0 W/m 4,7 C 5,1 C 1,2 km/h (1 Bft) 98,22 %
08.11.2017 22:00 4,9 C 7,7 C 97 % 1019,1 hPa 0,0 l/m 1,1 km/h (1 Bft) S 0,00 h 0,000 mm 0,0 UV-I 0 W/m 4,5 C 4,9 C 2,8 km/h (1 Bft) 97,95 %
08.11.2017 23:00 5,1 C 7,8 C 97 % 1019,4 hPa 0,0 l/m 0,4 km/h (0 Bft) S 0,00 h 0,000 mm 0,0 UV-I 0 W/m 4,7 C 5,1 C 1,4 km/h (1 Bft) 99,33 %
09.11.2017 00:00 5,0 C 7,8 C 97 % 1019,5 hPa 0,0 l/m 0,2 km/h (0 Bft) S 0,00 h 0,000 mm 0,0 UV-I 0 W/m 4,6 C 5,0 C 0,4 km/h (0 Bft) 96,10 %
09.11.2017 01:00 5,1 C 7,8 C 97 % 1019,9 hPa 0,0 l/m 0,3 km/h (0 Bft) S 0,00 h 0,000 mm 0,0 UV-I 0 W/m 4,7 C 5,1 C 0,7 km/h (0 Bft) 98,88 %
09.11.2017 02:00 5,1 C 7,8 C 97 % 1020,1 hPa 0,0 l/m 0,6 km/h (0 Bft) S 0,00 h 0,000 mm 0,0 UV-I 0 W/m 4,7 C 5,1 C 1,8 km/h (1 Bft) 98,09 %
09.11.2017 03:00 5,2 C 7,8 C 97 % 1020,1 hPa 0,0 l/m 0,8 km/h (0 Bft) S 0,00 h 0,000 mm 0,0 UV-I 0 W/m 4,8 C 5,2 C 2,3 km/h (1 Bft) 98,92 %
09.11.2017 04:00 5,3 C 7,8 C 97 % 1020,4 hPa 0,0 l/m 1,0 km/h (0 Bft) S 0,00 h 0,000 mm 0,0 UV-I 0 W/m 4,8 C 5,3 C 2,5 km/h (1 Bft) 96,25 %
09.11.2017 05:00 5,2 C 7,8 C 97 % 1020,4 hPa 0,0 l/m 1,3 km/h (1 Bft) SO 0,00 h 0,000 mm 0,0 UV-I 0 W/m 4,8 C 5,2 C 3,3 km/h (1 Bft) 99,52 %
09.11.2017 06:00 5,2 C 7,8 C 97 % 1020,7 hPa 0,0 l/m 0,5 km/h (0 Bft) SO 0,00 h 0,000 mm 0,0 UV-I 1 W/m 4,7 C 5,2 C 1,8 km/h (1 Bft) 97,68 %
09.11.2017 07:00 5,3 C 7,8 C 97 % 1021,1 hPa 0,0 l/m 0,3 km/h (0 Bft) SO 0,00 h 0,000 mm 0,0 UV-I 11 W/m 4,8 C 5,3 C 0,5 km/h (0 Bft) 98,63 %
09.11.2017 08:00 5,5 C 7,8 C 97 % 1021,8 hPa 0,0 l/m 1,9 km/h (1 Bft) NO 0,00 h 0,000 mm 0,0 UV-I 31 W/m 5,0 C 5,5 C 3,4 km/h (1 Bft) 96,30 %
09.11.2017 09:00 5,9 C 7,8 C 97 % 1022,2 hPa 0,0 l/m 0,8 km/h (0 Bft) NO 0,00 h 0,025 mm 0,0 UV-I 69 W/m 5,4 C 5,9 C 1,8 km/h (1 Bft) 99,51 %
09.11.2017 10:00 6,9 C 7,8 C 94 % 1022,4 hPa 0,0 l/m 4,4 km/h (1 Bft) W-SW 0,00 h 0,026 mm 0,5 UV-I 157 W/m 6,1 C 6,9 C 7,5 km/h (2 Bft) 97,82 %
09.11.2017 11:00 7,7 C 7,8 C 92 % 1022,5 hPa 0,0 l/m 5,7 km/h (1 Bft) W-SW 0,00 h 0,076 mm 0,6 UV-I 170 W/m 6,5 C 7,4 C 9,1 km/h (2 Bft) 98,67 %
09.11.2017 12:00 7,9 C 7,8 C 89 % 1022,2 hPa 0,0 l/m 4,3 km/h (1 Bft) W-SW 0,00 h 0,076 mm 0,4 UV-I 141 W/m 6,2 C 7,8 C 7,3 km/h (2 Bft) 95,40 %
09.11.2017 13:00 7,9 C 7,8 C 88 % 1022,0 hPa 0,0 l/m 3,7 km/h (1 Bft) W 0,00 h 0,076 mm 0,0 UV-I 104 W/m 6,0 C 7,9 C 6,1 km/h (2 Bft) 99,21 %
09.11.2017 14:00 7,9 C 7,8 C 88 % 1022,1 hPa 0,0 l/m 2,9 km/h (1 Bft) W 0,00 h 0,051 mm 0,0 UV-I 76 W/m 6,1 C 7,9 C 5,0 km/h (1 Bft) 97,58 %
09.11.2017 15:00 7,8 C 7,8 C 88 % 1022,4 hPa 0,0 l/m 3,2 km/h (1 Bft) W 0,00 h 0,026 mm 0,0 UV-I 36 W/m 5,9 C 7,8 C 5,1 km/h (1 Bft) 99,12 %
09.11.2017 16:00 7,4 C 7,8 C 91 % 1022,7 hPa 0,0 l/m 3,3 km/h (1 Bft) W-SW 0,00 h 0,025 mm 0,0 UV-I 8 W/m 6,0 C 7,4 C 4,7 km/h (1 Bft) 96,34 %
09.11.2017 17:00 7,0 C 7,8 C 93 % 1022,9 hPa 0,0 l/m 1,6 km/h (1 Bft) W-SW 0,00 h 0,000 mm 0,0 UV-I 0 W/m 5,9 C 7,0 C 3,0 km/h (1 Bft) 99,62 %
09.11.2017 18:00 6,7 C 7,8 C 94 % 1023,2 hPa 0,0 l/m 1,4 km/h (1 Bft) W-SW 0,00 h 0,000 mm 0,0 UV-I 0 W/m 5,9 C 6,7 C 2,8 km/h (1 Bft) 97,99 %
09.11.2017 19:00 6,7 C 7,8 C 92 % 1023,5 hPa 0,0 l/m 4,7 km/h (1 Bft) SW 0,00 h 0,000 mm 0,0 UV-I 0 W/m 5,4 C 6,7 C 6,9 km/h (2 Bft) 98,04 %
09.11.2017 20:00 6,5 C 7,8 C 87 % 1023,8 hPa 0,0 l/m 2,5 km/h (1 Bft) SW 0,00 h 0,000 mm 0,0 UV-I 0 W/m 4,4 C 6,5 C 4,2 km/h (1 Bft) 97,19 %
09.11.2017 21:00 6,3 C 7,8 C 87 % 1023,9 hPa 0,0 l/m 2,9 km/h (1 Bft) SW 0,00 h 0,000 mm 0,0 UV-I 0 W/m 4,3 C 6,3 C 4,7 km/h (1 Bft) 99,25 %
09.11.2017 22:00 6,2 C 7,8 C 89 % 1024,0 hPa 0,0 l/m 3,7 km/h (1 Bft) SW 0,00 h 0,000 mm 0,0 UV-I 0 W/m 4,4 C 6,1 C 5,8 km/h (2 Bft) 97,90 %
09.11.2017 23:00 6,1 C 7,8 C 89 % 1024,0 hPa 0,0 l/m 3,3 km/h (1 Bft) SW 0,00 h 0,000 mm 0,0 UV-I 0 W/m 4,3 C 6,1 C 5,3 km/h (1 Bft) 96,63 %
10.11.2017 00:00 6,2 C 7,8 C 86 % 1023,7 hPa 0,0 l/m 4,7 km/h (1 Bft) SW 0,00 h 0,000 mm 0,0 UV-I 0 W/m 4,0 C 6,1 C 7,0 km/h (2 Bft) 98,29 %
10.11.2017 01:00 6,1 C 7,8 C 86 % 1023,6 hPa 0,0 l/m 5,0 km/h (1 Bft) W-SW 0,00 h 0,000 mm 0,0 UV-I 0 W/m 4,0 C 6,1 C 7,3 km/h (2 Bft) 99,22 %
10.11.2017 02:00 6,2 C 7,8 C 85 % 1023,4 hPa 0,0 l/m 7,0 km/h (2 Bft) S-SW 0,00 h 0,000 mm 0,0 UV-I 0 W/m 3,8 C 5,4 C 11,2 km/h (2 Bft) 98,24 %
10.11.2017 03:00 6,1 C 7,8 C 85 % 1022,9 hPa 0,0 l/m 7,4 km/h (2 Bft) S-SW 0,00 h 0,025 mm 0,0 UV-I 0 W/m 3,8 C 5,2 C 11,2 km/h (2 Bft) 96,87 %
10.11.2017 04:00 5,9 C 7,8 C 87 % 1021,9 hPa 0,0 l/m 5,6 km/h (1 Bft) S-SW 0,00 h 0,026 mm 0,0 UV-I 0 W/m 3,9 C 5,8 C 8,7 km/h (2 Bft) 98,77 %
10.11.2017 05:00 5,9 C 7,8 C 86 % 1021,4 hPa 0,0 l/m 5,8 km/h (2 Bft) SW 0,00 h 0,000 mm 0,0 UV-I 0 W/m 3,8 C 5,4 C 8,8 km/h (2 Bft) 98,69 %
10.11.2017 06:00 5,9 C 7,8 C 86 % 1021,3 hPa 0,0 l/m 8,4 km/h (2 Bft) SW 0,00 h 0,000 mm 0,0 UV-I 0 W/m 3,7 C 4,3 C 12,4 km/h (3 Bft) 98,30 %
10.11.2017 07:00 6,0 C 7,8 C 84 % 1021,3 hPa 0,0 l/m 8,1 km/h (2 Bft) SW 0,00 h 0,025 mm 0,0 UV-I 12 W/m 3,5 C 4,6 C 12,8 km/h (3 Bft) 96,43 %
10.11.2017 08:00 6,0 C 7,8 C 84 % 1021,6 hPa 0,0 l/m 9,5 km/h (2 Bft) W-SW 0,00 h 0,026 mm 0,0 UV-I 26 W/m 3,5 C 3,7 C 15,0 km/h (3 Bft) 99,41 %
10.11.2017 09:00 6,4 C 7,8 C 81 % 1021,5 hPa 0,0 l/m 11,5 km/h (2 Bft) S-SW 0,00 h 0,025 mm 0,0 UV-I 54 W/m 3,4 C 2,7 C 17,5 km/h (3 Bft) 97,81 %
10.11.2017 10:00 7,1 C 7,8 C 78 % 1021,0 hPa 0,0 l/m 13,1 km/h (3 Bft) SW 0,00 h 0,051 mm 0,0 UV-I 103 W/m 3,5 C 2,6 C 20,3 km/h (4 Bft) 98,52 %
10.11.2017 11:00 7,6 C 7,8 C 73 % 1020,0 hPa 0,0 l/m 15,6 km/h (3 Bft) SW 0,00 h 0,076 mm 0,0 UV-I 113 W/m 3,0 C 2,0 C 24,4 km/h (4 Bft) 95,95 %
10.11.2017 12:00 7,7 C 7,8 C 71 % 1019,1 hPa 0,0 l/m 13,8 km/h (3 Bft) SW 0,00 h 0,102 mm 0,0 UV-I 96 W/m 2,9 C 3,0 C 21,5 km/h (4 Bft) 99,21 %
10.11.2017 13:00 7,7 C 7,8 C 72 % 1018,3 hPa 0,0 l/m 13,4 km/h (3 Bft) SW 0,00 h 0,076 mm 0,0 UV-I 81 W/m 3,0 C 3,2 C 20,5 km/h (4 Bft) 98,03 %
10.11.2017 14:00 7,7 C 7,8 C 73 % 1017,5 hPa 0,2 l/m 13,6 km/h (3 Bft) SW 0,00 h 0,076 mm 0,0 UV-I 78 W/m 3,1 C 3,0 C 20,4 km/h (4 Bft) 99,19 %
10.11.2017 15:00 7,5 C 7,8 C 75 % 1017,1 hPa 0,0 l/m 12,8 km/h (3 Bft) W-SW 0,00 h 0,076 mm 0,0 UV-I 37 W/m 3,3 C 3,2 C 20,0 km/h (4 Bft) 96,01 %
10.11.2017 16:00 7,0 C 7,8 C 78 % 1016,8 hPa 0,0 l/m 12,4 km/h (3 Bft) SW 0,07 h 0,051 mm 0,0 UV-I 11 W/m 3,4 C 3,0 C 18,9 km/h (3 Bft) 99,42 %
10.11.2017 17:00 6,8 C 7,8 C 79 % 1016,4 hPa 0,0 l/m 10,9 km/h (2 Bft) W-SW 0,00 h 0,025 mm 0,0 UV-I 0 W/m 3,4 C 3,6 C 16,3 km/h (3 Bft) 97,82 %
10.11.2017 18:00 6,5 C 7,8 C 81 % 1016,3 hPa 0,0 l/m 7,2 km/h (2 Bft) SW 0,00 h 0,026 mm 0,0 UV-I 0 W/m 3,5 C 5,7 C 10,9 km/h (2 Bft) 98,68 %
10.11.2017 19:00 6,4 C 7,8 C 82 % 1015,7 hPa 0,0 l/m 9,9 km/h (2 Bft) W-SW 0,00 h 0,025 mm 0,0 UV-I 0 W/m 3,5 C 3,7 C 14,9 km/h (3 Bft) 95,49 %
10.11.2017 20:00 6,2 C 7,8 C 85 % 1015,5 hPa 0,2 l/m 15,8 km/h (3 Bft) W-SW 0,00 h 0,026 mm 0,0 UV-I 0 W/m 3,9 C 0,2 C 23,4 km/h (4 Bft) 99,30 %
10.11.2017 21:00 5,8 C 7,8 C 90 % 1015,5 hPa 0,2 l/m 18,5 km/h (3 Bft) SW 0,00 h 0,025 mm 0,0 UV-I 0 W/m 4,2 C -1,4 C 28,4 km/h (4 Bft) 97,90 %
10.11.2017 22:00 5,7 C 7,8 C 94 % 1015,4 hPa 1,0 l/m 20,4 km/h (4 Bft) W-SW 0,00 h 0,025 mm 0,0 UV-I 0 W/m 4,7 C -2,4 C 30,7 km/h (5 Bft) 98,59 %
10.11.2017 23:00 6,1 C 7,8 C 93 % 1015,0 hPa 0,2 l/m 15,5 km/h (3 Bft) SW 0,00 h 0,026 mm 0,0 UV-I 0 W/m 5,1 C 0,3 C 22,6 km/h (4 Bft) 96,69 %
11.11.2017 00:00 6,4 C 7,8 C 93 % 1014,8 hPa 0,6 l/m 15,5 km/h (3 Bft) SW 0,00 h 0,000 mm 0,0 UV-I 0 W/m 5,3 C 0,6 C 22,8 km/h (4 Bft) 99,14 %
11.11.2017 01:00 6,4 C 7,8 C 94 % 1014,5 hPa 1,0 l/m 16,5 km/h (3 Bft) SW 0,00 h 0,000 mm 0,0 UV-I 0 W/m 5,5 C 0,1 C 24,6 km/h (4 Bft) 98,12 %
11.11.2017 02:00 6,3 C 7,8 C 95 % 1014,5 hPa 0,6 l/m 14,5 km/h (3 Bft) W-SW 0,00 h 0,000 mm 0,0 UV-I 0 W/m 5,5 C 1,0 C 22,1 km/h (4 Bft) 98,11 %
11.11.2017 03:00 6,0 C 7,8 C 94 % 1014,7 hPa 1,2 l/m 15,3 km/h (3 Bft) W 0,00 h 0,000 mm 0,0 UV-I 0 W/m 5,1 C 0,4 C 24,0 km/h (4 Bft) 97,04 %
11.11.2017 04:00 5,3 C 7,8 C 94 % 1014,8 hPa 0,0 l/m 9,0 km/h (2 Bft) W 0,00 h 0,000 mm 0,0 UV-I 0 W/m 4,4 C 3,3 C 14,4 km/h (3 Bft) 99,17 %
11.11.2017 05:00 5,6 C 7,8 C 91 % 1015,0 hPa 0,0 l/m 12,4 km/h (3 Bft) W-SW 0,00 h 0,000 mm 0,0 UV-I 0 W/m 4,2 C 1,3 C 19,0 km/h (3 Bft) 98,55 %
11.11.2017 06:00 4,8 C 7,8 C 90 % 1015,3 hPa 0,0 l/m 15,9 km/h (3 Bft) SW 0,00 h 0,000 mm 0,0 UV-I 0 W/m 3,2 C -1,5 C 24,0 km/h (4 Bft) 96,99 %
11.11.2017 07:00 4,7 C 7,8 C 90 % 1015,9 hPa 0,0 l/m 15,1 km/h (3 Bft) SW 0,00 h 0,025 mm 0,0 UV-I 11 W/m 3,1 C -1,3 C 23,0 km/h (4 Bft) 98,20 %
11.11.2017 08:00 4,7 C 7,8 C 88 % 1016,4 hPa 0,0 l/m 15,1 km/h (3 Bft) SW 0,00 h 0,026 mm 0,0 UV-I 39 W/m 2,9 C -1,3 C 22,8 km/h (4 Bft) 98,21 %
11.11.2017 09:00 4,7 C 7,8 C 86 % 1016,2 hPa 0,0 l/m 15,5 km/h (3 Bft) S-SW 0,00 h 0,025 mm 0,4 UV-I 92 W/m 2,6 C -1,5 C 24,1 km/h (4 Bft) 99,16 %
11.11.2017 10:00 5,2 C 7,8 C 84 % 1015,7 hPa 0,0 l/m 18,8 km/h (3 Bft) SW 0,37 h 0,051 mm 0,7 UV-I 200 W/m 2,7 C -2,4 C 28,6 km/h (4 Bft) 95,78 %
11.11.2017 11:00 5,9 C 7,8 C 83 % 1015,0 hPa 0,0 l/m 20,6 km/h (4 Bft) W-SW 0,58 h 0,102 mm 0,8 UV-I 231 W/m 3,3 C -2,1 C 31,0 km/h (5 Bft) 97,94 %
11.11.2017 12:00 6,6 C 7,8 C 79 % 1014,2 hPa 0,0 l/m 19,8 km/h (4 Bft) SW 0,03 h 0,127 mm 0,6 UV-I 165 W/m 3,2 C -1,0 C 30,0 km/h (5 Bft) 98,81 %
11.11.2017 13:00 6,6 C 7,8 C 76 % 1013,2 hPa 0,0 l/m 16,4 km/h (3 Bft) SW 0,00 h 0,101 mm 0,3 UV-I 74 W/m 2,6 C 0,4 C 24,7 km/h (4 Bft) 98,26 %
11.11.2017 14:00 6,5 C 7,8 C 79 % 1012,3 hPa 0,0 l/m 12,4 km/h (3 Bft) SW 0,00 h 0,076 mm 0,0 UV-I 69 W/m 3,0 C 2,3 C 20,5 km/h (4 Bft) 97,94 %
11.11.2017 15:00 5,9 C 7,8 C 85 % 1011,5 hPa 0,2 l/m 10,4 km/h (2 Bft) S-SW 0,00 h 0,051 mm 0,0 UV-I 33 W/m 3,7 C 2,9 C 16,5 km/h (3 Bft) 97,02 %
11.11.2017 16:00 5,3 C 7,8 C 92 % 1010,4 hPa 0,8 l/m 4,3 km/h (1 Bft) S 0,00 h 0,026 mm 0,0 UV-I 8 W/m 4,0 C 5,2 C 7,6 km/h (2 Bft) 98,98 %
11.11.2017 17:00 5,0 C 7,8 C 94 % 1009,6 hPa 1,2 l/m 2,4 km/h (1 Bft) S-SO 0,00 h 0,000 mm 0,0 UV-I 0 W/m 4,2 C 5,0 C 5,2 km/h (1 Bft) 98,90 %
11.11.2017 18:00 5,0 C 7,8 C 95 % 1009,3 hPa 1,8 l/m 4,7 km/h (1 Bft) S 0,00 h 0,000 mm 0,0 UV-I 0 W/m 4,2 C 4,9 C 8,2 km/h (2 Bft) 97,21 %
11.11.2017 19:00 5,6 C 7,8 C 95 % 1008,4 hPa 1,2 l/m 10,2 km/h (2 Bft) S-SW 0,00 h 0,000 mm 0,0 UV-I 0 W/m 4,8 C 2,6 C 17,2 km/h (3 Bft) 98,12 %
11.11.2017 20:00 6,7 C 7,8 C 93 % 1007,4 hPa 1,2 l/m 16,4 km/h (3 Bft) SW 0,00 h 0,000 mm 0,0 UV-I 0 W/m 5,5 C 0,5 C 26,3 km/h (4 Bft) 98,25 %
11.11.2017 21:00 7,0 C 7,8 C 93 % 1007,1 hPa 1,2 l/m 16,6 km/h (3 Bft) SW 0,00 h 0,025 mm 0,0 UV-I 0 W/m 6,0 C 0,8 C 25,0 km/h (4 Bft) 99,18 %
11.11.2017 22:00 7,4 C 7,8 C 93 % 1006,7 hPa 0,6 l/m 18,2 km/h (3 Bft) SW 0,00 h 0,025 mm 0,0 UV-I 0 W/m 6,3 C 0,7 C 28,9 km/h (5 Bft) 96,87 %
11.11.2017 23:00 7,4 C 7,8 C 94 % 1006,6 hPa 0,6 l/m 18,2 km/h (3 Bft) SW 0,00 h 0,026 mm 0,0 UV-I 0 W/m 6,5 C 0,7 C 28,0 km/h (4 Bft) 98,23 %
12.11.2017 00:00 7,6 C 7,8 C 95 % 1006,6 hPa 0,2 l/m 18,8 km/h (3 Bft) SW 0,00 h 0,000 mm 0,0 UV-I 0 W/m 6,8 C 0,6 C 29,5 km/h (5 Bft) 98,19 %
12.11.2017 01:00 7,9 C 7,8 C 94 % 1006,7 hPa 0,0 l/m 18,3 km/h (3 Bft) SW 0,00 h 0,000 mm 0,0 UV-I 0 W/m 7,0 C 1,3 C 28,2 km/h (4 Bft) 99,03 %
12.11.2017 02:00 8,2 C 7,8 C 93 % 1006,7 hPa 0,4 l/m 16,8 km/h (3 Bft) SW 0,00 h 0,000 mm 0,0 UV-I 0 W/m 7,1 C 2,2 C 25,3 km/h (4 Bft) 96,44 %
12.11.2017 03:00 7,4 C 7,8 C 96 % 1007,1 hPa 1,8 l/m 11,5 km/h (2 Bft) W 0,00 h 0,025 mm 0,0 UV-I 0 W/m 6,7 C 3,9 C 18,5 km/h (3 Bft) 98,43 %
12.11.2017 04:00 6,6 C 7,8 C 96 % 1007,2 hPa 0,0 l/m 8,9 km/h (2 Bft) W 0,00 h 0,000 mm 0,0 UV-I 0 W/m 6,0 C 4,7 C 13,9 km/h (3 Bft) 97,96 %
12.11.2017 05:00 6,0 C 7,8 C 94 % 1007,2 hPa 0,0 l/m 9,5 km/h (2 Bft) W 0,00 h 0,000 mm 0,0 UV-I 0 W/m 5,1 C 3,7 C 15,7 km/h (3 Bft) 99,10 %
12.11.2017 06:00 5,6 C 7,8 C 94 % 1007,5 hPa 0,4 l/m 7,4 km/h (2 Bft) W 0,00 h 0,000 mm 0,0 UV-I 0 W/m 4,7 C 4,6 C 11,7 km/h (2 Bft) 96,48 %
12.11.2017 07:00 5,1 C 7,8 C 96 % 1007,7 hPa 0,8 l/m 4,7 km/h (1 Bft) W 0,00 h 0,000 mm 0,0 UV-I 14 W/m 4,5 C 5,0 C 8,3 km/h (2 Bft) 98,37 %
12.11.2017 08:00 5,0 C 7,8 C 96 % 1007,4 hPa 1,0 l/m 0,6 km/h (0 Bft) W 0,00 h 0,000 mm 0,0 UV-I 31 W/m 4,5 C 5,0 C 1,8 km/h (1 Bft) 97,90 %
12.11.2017 09:00 5,2 C 7,8 C 96 % 1006,9 hPa 1,0 l/m 0,2 km/h (0 Bft) W 0,00 h 0,026 mm 0,0 UV-I 48 W/m 4,6 C 5,2 C 0,7 km/h (0 Bft) 99,15 %
12.11.2017 10:00 5,4 C 7,8 C 96 % 1006,1 hPa 0,6 l/m 2,0 km/h (1 Bft) NO 0,00 h 0,025 mm 0,5 UV-I 109 W/m 4,7 C 5,4 C 3,7 km/h (1 Bft) 95,92 %
12.11.2017 11:00 5,7 C 7,8 C 94 % 1004,4 hPa 0,0 l/m 5,0 km/h (1 Bft) O 0,07 h 0,051 mm 0,6 UV-I 156 W/m 4,8 C 5,6 C 8,3 km/h (2 Bft) 98,70 %
12.11.2017 12:00 5,9 C 7,8 C 95 % 1002,6 hPa 0,4 l/m 7,4 km/h (2 Bft) O-NO 0,00 h 0,076 mm 0,5 UV-I 122 W/m 5,2 C 4,8 C 11,4 km/h (2 Bft) 98,25 %
12.11.2017 13:00 6,1 C 7,8 C 95 % 1000,5 hPa 0,2 l/m 10,7 km/h (2 Bft) O-NO 0,00 h 0,051 mm 0,0 UV-I 101 W/m 5,3 C 2,9 C 16,1 km/h (3 Bft) 99,39 %
12.11.2017 14:00 6,1 C 7,8 C 95 % 999,0 hPa 0,2 l/m 13,0 km/h (3 Bft) O-NO 0,00 h 0,306 mm 0,0 UV-I 53 W/m 5,4 C 1,6 C 18,7 km/h (3 Bft) 95,91 %
12.11.2017 15:00 5,9 C 7,8 C 96 % 997,6 hPa 0,0 l/m 11,5 km/h (2 Bft) O 0,00 h 0,000 mm 0,0 UV-I 22 W/m 5,3 C 2,2 C 17,5 km/h (3 Bft) 98,86 %
12.11.2017 16:00 5,9 C 7,8 C 97 % 996,6 hPa 0,8 l/m 7,2 km/h (2 Bft) O-NO 0,00 h 0,000 mm 0,0 UV-I 7 W/m 5,4 C 4,5 C 11,2 km/h (2 Bft) 98,52 %
12.11.2017 17:00 5,7 C 7,8 C 97 % 995,6 hPa 2,0 l/m 9,8 km/h (2 Bft) O-NO 0,00 h 0,000 mm 0,0 UV-I 0 W/m 5,3 C 2,6 C 15,0 km/h (3 Bft) 98,78 %
12.11.2017 18:00 5,6 C 7,8 C 97 % 993,9 hPa 0,2 l/m 12,5 km/h (3 Bft) O-NO 0,00 h 0,000 mm 0,0 UV-I 0 W/m 5,2 C 1,4 C 19,0 km/h (3 Bft) 95,84 %
12.11.2017 19:00 5,7 C 7,8 C 97 % 997,4 hPa 4,2 l/m 12,4 km/h (3 Bft) W-SW 0,00 h 0,000 mm 0,0 UV-I 0 W/m 5,3 C 1,7 C 20,5 km/h (4 Bft) 98,94 %
12.11.2017 20:00 5,6 C 7,8 C 93 % 999,1 hPa 0,6 l/m 24,7 km/h (4 Bft) W-SW 0,00 h 0,000 mm 0,0 UV-I 0 W/m 4,5 C -4,0 C 37,8 km/h (5 Bft) 98,58 %
12.11.2017 21:00 5,6 C 7,8 C 90 % 1000,1 hPa 0,0 l/m 23,9 km/h (4 Bft) W-SW 0,00 h 0,000 mm 0,0 UV-I 0 W/m 4,0 C -3,8 C 36,9 km/h (5 Bft) 97,52 %
12.11.2017 22:00 4,8 C 7,8 C 86 % 1001,6 hPa 0,0 l/m 24,3 km/h (4 Bft) W 0,00 h 0,000 mm 0,0 UV-I 0 W/m 2,7 C -5,0 C 39,0 km/h (6 Bft) 97,69 %
12.11.2017 23:00 4,2 C 7,8 C 85 % 1003,0 hPa 0,0 l/m 22,0 km/h (4 Bft) W-SW 0,00 h 0,000 mm 0,0 UV-I 0 W/m 1,9 C -4,9 C 34,8 km/h (5 Bft) 97,47 %
Min-Datum _ 06.11.17 06.11.17 10.11.17 12.11.17 - 07.11.17 - - - - - 12.11.17 12.11.17 07.11.17 06.11.17
_ Min-Zeit 20:02 01:10 11:48 18:30 - 00:44 - - - - - 23:28 23:10 00:46 15:18
Minimum _ 3,4 C 7,2 C 71 % 992,9 hPa - 0,0 km/h (0 Bft) - - - - - 1,7 C -6,9 C 0,0 km/h (0 Bft) 84,21 %
Max-Datum _ 12.11.17 06.11.17 07.11.17 09.11.17 12.11.17 07.11.17 - 11.11.17 07.11.17 07.11.17 11.11.17 12.11.17 09.11.17 07.11.17 06.11.17
_ Max-Zeit 02:16 00:00 00:28 22:08 19:02 10:26 - 11:13 12:00 11:22 10:56 02:48 11:44 10:16 00:16
Maximum _ 8,2 C 7,8 C 98 % 1024,1 hPa 4,2 l/m 37,2 km/h
O-NO (5 Bft)
- 0,05 h 0,127 mm 0,9 UV-I 351 W/m 7,3 C 8,1 C 53,1 km/h
O-NO (7 Bft)
100,00 %
Durchschnitt _ 5,9 C 7,6 C 91 % 1015,5 hPa #43,6 l/m 10,7 km/h (2 Bft) SW #1:39 h #3,584 mm 0,6 UV-I 65 W/m 4,5 C 2,6 C 16,3 km/h (3 Bft) 97,99 %